Flag for U.S.A. Weather past 2 weeks in Racine, Wisconsin, U.S.A.

Now
73 °F

Sunny.


Feels Like: 77 °F
Forecast: 54 / 72 °F
Wind: 15 mph from South

Location: Batten International Airport

Current Time: May 28, 2015 at 3:26:25 PM

Latest Report: May 28, 2015 at 2:53 PM


Visibility: 10 mi

Pressure: 30.19 "Hg

Humidity: 51%

Dew point: 54 °F

Location of RacineLocation

Historic Weather in Racine — Graph

°F

Racine temperature yesterday

Maximum temperature yesterday: 70 °F (at 11:53 AM)
Minimum temperature yesterday: 59 °F (at 10:53 PM)
Average temperature yesterday: 65 °F

Past Weeks' High & Low Weather Summary

 TemperatureHumidityPressure
High79 °F (May 28, 10:53 AM)97% (May 17, 4:48 AM)30.49 "Hg (May 17, 4:48 AM)
Low37 °F (May 19, 9:53 PM)26% (May 21, 4:53 PM)29.72 "Hg (May 26, 4:53 PM)
Average58 °F67%30.08 "Hg
* Reported May 13 1:53 PM — May 28 1:53 PM, Racine, Weather by CustomWeather, © 2015

Note: Actual official high and low records may vary slightly from our data, if they occured in-between our weather recording intervals... More about our weather records

Advertising

Racine weather history for previous 24 hours

 ConditionsComfort  
Time TempWeatherWind HumidityBarometerVisibility
1:53 PM
Thu, May 28
74 °FSunny.14 mph52%30.19 "Hg10 mi
12:53 PM73 °FSunny.10 mph57%30.20 "Hg10 mi
11:53 AM77 °FSunny.12 mph54%30.19 "Hg10 mi
10:53 AM79 °FSunny.9 mph47%30.20 "Hg10 mi
9:53 AM75 °FSunny.7 mph58%30.22 "Hg10 mi
8:53 AM72 °FSunny.9 mph61%30.21 "Hg10 mi
7:53 AM67 °FSunny.7 mph71%30.19 "Hg10 mi
6:53 AM64 °FSunny.5 mph75%30.18 "Hg10 mi
5:53 AM61 °FClear.3 mph78%30.18 "Hg10 mi
4:53 AM61 °FClear.3 mph78%30.16 "Hg10 mi
3:53 AM61 °FClear.7 mph78%30.15 "Hg10 mi
2:53 AM61 °FClear.5 mph81%30.15 "Hg10 mi
1:53 AM58 °FClear.6 mph87%30.15 "Hg10 mi
12:53 AM57 °FClear.3 mph87%30.14 "Hg10 mi
11:53 PM
Wed, May 27
60 °FClear.6 mph78%30.13 "Hg10 mi
10:53 PM59 °FClear.5 mph81%30.11 "Hg10 mi
9:53 PM60 °FClear.5 mph78%30.11 "Hg10 mi
8:53 PM62 °FSunny.3 mph75%30.09 "Hg10 mi
7:53 PM65 °FSunny.5 mph70%30.06 "Hg10 mi
6:53 PM67 °FSunny.6 mph66%30.04 "Hg10 mi
5:53 PM68 °FSunny.5 mph63%30.03 "Hg10 mi
4:53 PM69 °FSunny.7 mph63%30.03 "Hg10 mi
3:53 PM69 °FSunny.12 mph63%30.02 "Hg10 mi
Weather by CustomWeather, © 2015

See weather overviewHow to use our weather pages